Powerscourt Airfield

Jump to: basic info | weather | comments

Related pages: nearby airports | nearby navaids | notams | map

Basic information (top)

Codes: EIPT
Location: lon 53.178301, lat -6.196495, elev 470 ft / 143 m msl
Status: small_airport

Weather (top)

Current conditions for Casement Air Base 12nm (22km) NW (rec'd 2015/04/19 12:00Z):

EIME 191200Z 08013KT 9999 SCT025 09/03 Q1027

Airport forecast for Dublin Airport 15nm (27km) N (rec'd 2015/04/19 12:25Z):

TAF EIDW 191100Z 1912/2012 06012KT 9999 FEW015 SCT025 
      BECMG 1917/1919 04006KT 
      BECMG 2001/2004 07005KT PROB30 
      TEMPO 2004/2007 BKN015 
      BECMG 2008/2011 12010KT

Latest comments (top)

Reopened: does anybody know about reopening and ppr? [read]

Operations suspended at this airport: Air Accident Investigation Unit Interim ... [read]

re: Powerscourt Airfield: Thank you very much - I've updated the position. [read]

Powerscourt Airfield: Position 53:10.787N 006:12.075W ... [read]

More... (top)

See also NOTAMs and nearby airports and navaids, or visit the Powerscourt Airfield page at the main OurAirports website..